This demonstration page uses our WeatherBlox Daily Observations layout. Learn more.

Left ArrowRight Arrow

39.08367, -84.50855

Hourly Observations for April 28, 2020

Temp ( °F °C ) Dew Point ( °F °C ) Humidity (%) Winds ( mph kmh ) Pressure ( in mb ) Visibility ( mi km ) Precip ( " mm )
12:53 am 00:53 Cloudy 53 11.7 43 6.1 69 69 S 9 15 30.06 1018 10 16 0.00 0.00
1:53 am 01:53 Cloudy with Light Rain 55 12.8 44 6.7 67 67 SSW 6 9 30.05 1018 10 16 0.00 0.00
2:53 am 02:53 Cloudy 55 12.8 44 6.7 67 67 WSW 3 6 30.03 1017 10 16 0.00 0.00
3:53 am 03:53 Cloudy 53 11.7 46 7.8 77 77 SW 6 9 30.03 1017 10 16 0.00 0.00
4:53 am 04:53 Cloudy 54 12.2 46 7.8 75 75 SW 7 11 30.01 1016 10 16 0.00 0.00
5:53 am 05:53 Cloudy 56 13.3 44 6.7 65 65 SSW 9 15 30.02 1017 10 16 0.00 0.00
6:53 am 06:53 Partly Cloudy 56 13.3 44 6.7 65 65 SSW 10 17 30.01 1016 10 16 0.00 0.00
7:53 am 07:53 Mostly Cloudy 59 15 46 7.8 62 62 SW 6 9 30.03 1017 10 16 0.00 0.00
8:53 am 08:53 Partly Cloudy 62 16.7 48 8.9 60 60 SSW 8 13 30.04 1017 10 16 0.00 0.00
9:53 am 09:53 Mostly Sunny 63 17.2 49 9.4 60 60 SW 10 17 30.04 1017 10 16 0.00 0.00
10:53 am 10:53 Partly Cloudy 63 17.2 49 9.4 60 60 SW 15 24 30.04 1017 10 16 0.00 0.00
11:53 am 11:53 Mostly Sunny 66 18.9 51 10.6 59 59 SW 12 19 30.02 1017 10 16 0.00 0.00
12:53 pm 12:53 Sunny 72 22.2 52 11.1 50 50 SW 13 20 29.99 1016 10 16 0.00 0.00
1:53 pm 13:53 Mostly Sunny 74 23.3 51 10.6 45 45 SW 10 17 29.96 1014 10 16 0.00 0.00
2:53 pm 14:53 Partly Cloudy 76 24.4 52 11.1 43 43 SW 14 22 29.93 1014 10 16 0.00 0.00
3:53 pm 15:53 Partly Cloudy 76 24.4 53 11.7 45 45 S 16 26 29.91 1013 10 16 0.00 0.00
4:53 pm 16:53 Partly Cloudy 74 23.3 52 11.1 46 46 SW 12 19 29.90 1013 10 16 0.00 0.00
5:53 pm 17:53 Partly Cloudy 73 22.8 52 11.1 48 48 SW 14 22 29.88 1012 10 16 0.00 0.00
6:53 pm 18:53 Mostly Sunny 71 21.7 52 11.1 51 51 SSW 13 20 29.89 1012 10 16 0.00 0.00
7:53 pm 19:53 Partly Cloudy 69 20.6 50 10 51 51 S 15 24 29.86 1011 10 16 0.00 0.00
8:53 pm 20:53 Clear 67 19.4 49 9.4 53 53 S 7 11 29.84 1010 10 16 0.00 0.00
9:53 pm 21:53 Mostly Cloudy 65 18.3 50 10 59 59 S 3 6 29.85 1011 10 16 0.00 0.00
10:53 pm 22:53 Mostly Cloudy with Light Rain 64 17.8 50 10 60 60 VRB 5 7 29.83 1010 10 16 0.00 0.00
11:53 pm 23:53 Mostly Clear 60 15.6 50 10 70 70 SW 5 7 29.81 1009 10 16 0.00 0.00

Powered by AerisWeather